When you browse on this site, cookies collect data to enhance your experience and personalize the content and advertising you see.
Visit our Privacy Policy to learn more. By continuing to use the site, you agree to this use of cookies and data.
  • In Österreich
  • Länderverzeichnis
  • Für 7 Tage
  • Wassertemperatur
  • Wetterkarte
  • News
  • Widgets
  • user-avatar
    Anmelden

    Stündliche Wetter Pasca

    Heute, 17 Januar, Freitag

    Zeit Temperatur Niederschläge Wind Luftdruck Luftfeuchtigkeit
    00:00 +15°C° 0 mm 2 m/S 585 mmHg 80%
    01:00 +15°C° 0 mm 2 m/S 585 mmHg 83%
    02:00 +15°C° 0.1 mm 2 m/S 584 mmHg 84%
    03:00 +15°C° 0.1 mm 2 m/S 584 mmHg 84%
    04:00 +15°C° 0.1 mm 2 m/S 584 mmHg 84%
    05:00 +15°C° 0 mm 2 m/S 584 mmHg 84%
    06:00 +15°C° 0 mm 2 m/S 585 mmHg 83%
    07:00 +15°C° 0 mm 2 m/S 586 mmHg 82%
    08:00 +16°C° 0.2 mm 2 m/S 586 mmHg 81%
    09:00 +18°C° 0.2 mm 1 m/S 587 mmHg 80%
    10:00 +19°C° 0.2 mm 1 m/S 587 mmHg 79%
    11:00 +20°C° 0.2 mm 1 m/S 587 mmHg 75%
    12:00 +20°C° 0.2 mm 2 m/S 587 mmHg 72%
    13:00 +20°C° 0.2 mm 2 m/S 586 mmHg 69%
    14:00 +21°C° 0.1 mm 2 m/S 586 mmHg 68%
    15:00 +21°C° 0.1 mm 2 m/S 585 mmHg 68%
    16:00 +22°C° 0.1 mm 1 m/S 585 mmHg 67%
    17:00 +19°C° 0.1 mm 2 m/S 585 mmHg 72%
    18:00 +18°C° 0.1 mm 2 m/S 584 mmHg 78%
    19:00 +16°C° 0.1 mm 2 m/S 584 mmHg 83%
    20:00 +16°C° 0 mm 2 m/S 585 mmHg 82%
    21:00 +16°C° 0 mm 2 m/S 585 mmHg 81%
    22:00 +16°C° 0 mm 2 m/S 586 mmHg 80%
    23:00 +16°C° 0.1 mm 2 m/S 586 mmHg 79%

    Morgen, 18 Januar, Samstag

    Zeit Temperatur Niederschläge Wind Luftdruck Luftfeuchtigkeit
    00:00 +16°C° 0.1 mm 1 m/S 586 mmHg 79%
    01:00 +16°C° 0.1 mm 1 m/S 585 mmHg 78%
    02:00 +16°C° 0.3 mm 1 m/S 585 mmHg 80%
    03:00 +16°C° 0.3 mm 1 m/S 585 mmHg 82%
    04:00 +16°C° 0.3 mm 1 m/S 584 mmHg 83%
    05:00 +16°C° 0.1 mm 1 m/S 585 mmHg 84%
    06:00 +16°C° 0.1 mm 1 m/S 585 mmHg 84%
    07:00 +16°C° 0.1 mm 1 m/S 585 mmHg 85%
    08:00 +18°C° 0.1 mm 1 m/S 586 mmHg 82%
    09:00 +19°C° 0.1 mm 1 m/S 587 mmHg 79%
    10:00 +20°C° 0.1 mm 1 m/S 587 mmHg 75%
    11:00 +21°C° 0.2 mm 1 m/S 587 mmHg 72%
    12:00 +22°C° 0.2 mm 1 m/S 587 mmHg 69%
    13:00 +23°C° 0.2 mm 1 m/S 586 mmHg 66%
    14:00 +23°C° 0.2 mm 1 m/S 586 mmHg 68%
    15:00 +22°C° 0.2 mm 1 m/S 585 mmHg 69%
    16:00 +22°C° 0.2 mm 1 m/S 584 mmHg 71%
    17:00 +21°C° 0.1 mm 1 m/S 584 mmHg 76%
    18:00 +19°C° 0.1 mm 1 m/S 584 mmHg 80%
    19:00 +17°C° 0.1 mm 2 m/S 584 mmHg 85%
    20:00 +16°C° 0.1 mm 2 m/S 584 mmHg 85%
    21:00 +16°C° 0.1 mm 2 m/S 584 mmHg 84%
    22:00 +16°C° 0.1 mm 2 m/S 585 mmHg 84%
    23:00 +16°C° 0 mm 2 m/S 585 mmHg 84%

    übermorgen, 19 Januar, Sonntag

    Zeit Temperatur Niederschläge Wind Luftdruck Luftfeuchtigkeit
    00:00 +16°C° 0 mm 2 m/S 585 mmHg 83%
    01:00 +16°C° 0 mm 1 m/S 584 mmHg 82%
    02:00 +16°C° 0.1 mm 1 m/S 584 mmHg 83%
    03:00 +16°C° 0.1 mm 1 m/S 584 mmHg 83%
    04:00 +16°C° 0.1 mm 1 m/S 584 mmHg 84%
    05:00 +16°C° 0 mm 1 m/S 584 mmHg 84%
    06:00 +16°C° 0 mm 1 m/S 585 mmHg 84%
    07:00 +16°C° 0 mm 1 m/S 585 mmHg 84%
    08:00 +18°C° 0 mm 1 m/S 586 mmHg 81%
    09:00 +19°C° 0 mm 1 m/S 586 mmHg 77%
    10:00 +20°C° 0 mm 1 m/S 587 mmHg 74%
    11:00 +21°C° 0.2 mm 1 m/S 587 mmHg 72%
    12:00 +22°C° 0.2 mm 1 m/S 586 mmHg 69%
    13:00 +23°C° 0.2 mm 1 m/S 586 mmHg 67%
    14:00 +23°C° 0.2 mm 1 m/S 585 mmHg 67%
    15:00 +23°C° 0.2 mm 1 m/S 585 mmHg 67%
    16:00 +23°C° 0.2 mm 1 m/S 584 mmHg 66%
    17:00 +21°C° 0.1 mm 1 m/S 584 mmHg 72%
    18:00 +19°C° 0.1 mm 1 m/S 584 mmHg 78%
    19:00 +17°C° 0.1 mm 2 m/S 584 mmHg 84%
    20:00 +16°C° 0.2 mm 2 m/S 584 mmHg 85%
    21:00 +16°C° 0.2 mm 2 m/S 584 mmHg 85%
    22:00 +16°C° 0.2 mm 2 m/S 585 mmHg 85%
    23:00 +15°C° 0.5 mm 2 m/S 584 mmHg 85%

    20 Januar, Montag

    Zeit Temperatur Niederschläge Wind Luftdruck Luftfeuchtigkeit
    00:00 +15°C° 0.5 mm 2 m/S 584 mmHg 86%
    01:00 +15°C° 0.5 mm 1 m/S 584 mmHg 86%
    02:00 +15°C° 0.4 mm 1 m/S 584 mmHg 87%
    03:00 +15°C° 0.4 mm 1 m/S 583 mmHg 87%
    04:00 +15°C° 0.4 mm 1 m/S 583 mmHg 88%
    05:00 +15°C° 0.3 mm 1 m/S 584 mmHg 88%
    06:00 +15°C° 0.3 mm 1 m/S 584 mmHg 87%
    07:00 +16°C° 0.3 mm 1 m/S 585 mmHg 87%
    08:00 +18°C° 0.2 mm 1 m/S 586 mmHg 83%
    09:00 +20°C° 0.2 mm 1 m/S 587 mmHg 78%
    10:00 +21°C° 0.2 mm 1 m/S 588 mmHg 74%
    11:00 +21°C° 0.9 mm 1 m/S 587 mmHg 75%
    12:00 +21°C° 0.9 mm 1 m/S 586 mmHg 76%
    13:00 +21°C° 0.9 mm 1 m/S 586 mmHg 78%
    14:00 +21°C° 1 mm 1 m/S 585 mmHg 79%
    15:00 +21°C° 1 mm 1 m/S 584 mmHg 81%
    16:00 +20°C° 1 mm 1 m/S 584 mmHg 83%
    17:00 +19°C° 1.1 mm 1 m/S 584 mmHg 85%
    18:00 +19°C° 1.1 mm 1 m/S 584 mmHg 88%
    19:00 +18°C° 1.1 mm 1 m/S 584 mmHg 90%
    20:00 +18°C° 0.7 mm 1 m/S 584 mmHg 89%
    21:00 +18°C° 0.7 mm 1 m/S 585 mmHg 88%
    22:00 +16°C° 0.7 mm 1 m/S 585 mmHg 87%
    23:00 +16°C° 0.4 mm 1 m/S 585 mmHg 87%

    21 Januar, Dienstag

    Zeit Temperatur Niederschläge Wind Luftdruck Luftfeuchtigkeit
    00:00 +16°C° 0.4 mm 1 m/S 585 mmHg 87%
    01:00 +16°C° 0.4 mm 1 m/S 584 mmHg 88%
    02:00 +15°C° 0.6 mm 0 m/S 584 mmHg 89%
    03:00 +14°C° 0.6 mm 0 m/S 584 mmHg 90%
    04:00 +14°C° 0.6 mm 0 m/S 583 mmHg 91%
    05:00 +14°C° 0.3 mm 0 m/S 584 mmHg 90%
    06:00 +14°C° 0.3 mm 0 m/S 584 mmHg 90%
    07:00 +14°C° 0.3 mm 0 m/S 585 mmHg 90%
    08:00 +15°C° 0.5 mm 0 m/S 585 mmHg 90%
    09:00 +18°C° 0.5 mm 1 m/S 586 mmHg 90%
    10:00 +18°C° 0.5 mm 1 m/S 586 mmHg 90%
    11:00 +18°C° 1.5 mm 1 m/S 586 mmHg 92%
    12:00 +18°C° 1.5 mm 1 m/S 585 mmHg 94%
    13:00 +16°C° 1.5 mm 1 m/S 584 mmHg 96%
    14:00 +16°C° 2 mm 1 m/S 584 mmHg 95%
    15:00 +15°C° 2 mm 0 m/S 584 mmHg 94%
    16:00 +15°C° 2 mm 0 m/S 583 mmHg 92%
    17:00 +15°C° 0.5 mm 0 m/S 583 mmHg 93%
    18:00 +14°C° 0.5 mm 0 m/S 583 mmHg 94%
    19:00 +14°C° 0.5 mm 0 m/S 584 mmHg 95%
    20:00 +14°C° 0.1 mm 0 m/S 584 mmHg 94%
    21:00 +14°C° 0.1 mm 0 m/S 585 mmHg 94%
    22:00 +14°C° 0.1 mm 0 m/S 585 mmHg 93%
    23:00 +14°C° 0 mm 0 m/S 585 mmHg 93%

    22 Januar, Mittwoch

    Zeit Temperatur Niederschläge Wind Luftdruck Luftfeuchtigkeit
    00:00 +14°C° 0 mm 0 m/S 584 mmHg 93%
    01:00 +13°C° 0 mm 0 m/S 584 mmHg 94%
    02:00 +13°C° 0.1 mm 0 m/S 584 mmHg 94%
    03:00 +13°C° 0.1 mm 0 m/S 584 mmHg 94%
    04:00 +13°C° 0.1 mm 0 m/S 584 mmHg 95%
    05:00 +13°C° 0.1 mm 0 m/S 584 mmHg 94%
    06:00 +14°C° 0.1 mm 0 m/S 584 mmHg 93%
    07:00 +14°C° 0.1 mm 0 m/S 585 mmHg 92%
    08:00 +15°C° 0.2 mm 0 m/S 585 mmHg 88%
    09:00 +18°C° 0.2 mm 1 m/S 586 mmHg 85%
    10:00 +19°C° 0.2 mm 1 m/S 587 mmHg 82%
    11:00 +20°C° 0.5 mm 1 m/S 586 mmHg 82%
    12:00 +20°C° 0.5 mm 1 m/S 586 mmHg 81%
    13:00 +20°C° 0.5 mm 2 m/S 585 mmHg 81%
    14:00 +20°C° 0.9 mm 1 m/S 585 mmHg 82%
    15:00 +20°C° 0.9 mm 1 m/S 584 mmHg 84%
    16:00 +19°C° 0.9 mm 1 m/S 583 mmHg 86%
    17:00 +19°C° 1 mm 1 m/S 583 mmHg 86%
    18:00 +18°C° 1 mm 1 m/S 583 mmHg 87%
    19:00 +15°C° 1 mm 0 m/S 583 mmHg 88%
    20:00 +14°C° 0.2 mm 0 m/S 584 mmHg 88%
    21:00 +14°C° 0.2 mm 0 m/S 584 mmHg 87%
    22:00 +14°C° 0.2 mm 0 m/S 585 mmHg 87%
    23:00 +14°C° 0.1 mm 0 m/S 584 mmHg 88%
    Mehr zeigen